www.pogodaiklimat.ru

Погода и климат >> Архив погоды >> Россия >> Приморский край >> Хороль


ПОГОДА в Хороле

  • Прогноз погоды в Хороле
  • Монитор погоды в Хороле

АРХИВ ПОГОДЫ в Хороле

Время (UTC), дата Ветер
(напр.,м/с)
 
Видим.   Явления Облачность Т
(С)
Тd
(С)
f
(%)
Тe
(С)
Тes
(С)
Комфортность P
(гПа)
Po
(гПа)
Тmin
(С)
Tmax
(С)
R
(мм)
R24
(мм)
S
(см)
00 10.09 З 3 н/о н/о +19.6 +9.6 52 +21 +21 комфорт 1015.7 1000.8
03 10.09 З 4 50 км 7 баллов +22.7 +6.4 35 +23 +26 комфорт 1016.0 1001.3
06 10.09 СЗ 2 н/о н/о +23.5 +7.6 36 +24 1014.7 1000.0
09 10.09 СВ 1 50 км 10/3 600 м
[Sc Ac trans Cc]
+19.0 +12.3 65 +21 +21 комфорт 1016.2 1001.3 +23.7
12 10.09 штиль 0 н/о н/о +14.8 +13.3 91 +14 1017.8 1002.7
15 10.09 СЗ 1 20 км 6 баллов +14.5 +10.5 77 +15 +15 1019.2 1004.0
18 10.09 СЗ 2 н/о н/о +13.1 +10.3 83 +12 1019.2 1004.0
21 10.09 З 3 50 км 4/3 600 м
[Sc Ci sp]
+11.7 +8.3 80 +10 +10 1019.8 1004.4 +11.6
00 11.09 СЗ 3 н/о н/о +15.9 +9.0 64 +15 +15 1020.4 1005.3 +10.8
03 11.09 С 4 50 км 7 баллов +17.9 +6.4 47 +18 +20 1020.3 1005.3
06 11.09 С 2 н/о н/о +19.9 +7.3 44 +21 1018.9 1004.0
09 11.09 СВ 1 50 км 3/3 600 м
[Sc]
+17.6 +8.3 54 +19 +19 1019.0 1003.9 +20.2
12 11.09 З 2 н/о н/о +12.1 +8.9 81 +11 1022.0 1006.7
15 11.09 З 2 50 км 2 балла +10.9 +7.6 80 +10 +10 1020.7 1005.3
18 11.09 З 2 н/о н/о +10.5 +7.4 81 +9 1020.7 1005.3
21 11.09 З 1 50 км ясно +9.8 +7.1 83 +9 +9 1021.1 1005.6 +9.4
00 12.09 СЗ 2 н/о н/о +16.7 +9.0 60 +17 +17 1021.0 1005.9
03 12.09 С 2 50 км 4 балла +20.3 +7.6 44 +22 +29 комфорт 1021.6 1006.7
06 12.09 СВ 1 н/о н/о +20.6 +8.6 46 +23 1020.2 1005.3
09 12.09 ЮЗ 1 20 км 10/0
[Cc]
+16.7 +9.4 62 +18 +18 1018.7 1003.5 +20.9
12 12.09 штиль 0 н/о н/о +11.2 +9.6 90 +11 1020.7 1005.3
15 12.09 штиль 0 20 км 2 балла +9.2 +8.1 93 +8 +8 1019.5 1004.0
21 12.09 Ю 2 50 км 3/0
[Ci sp]
+8.7 +7.6 93 +7 +7 1017.7 1002.2 +6.8
00 13.09 Ю 5 н/о н/о +16.7 +13.8 83 +16 +16 1016.1 1001.0
03 13.09 Ю 6-11
{14}
50 км 8/4 600 м
[Sc Ci sp]
+20.5 +13.2 63 +23 +25 комфорт 1014.4 999.6
06 13.09 Ю 6 н/о н/о +20.7 +12.1 58 +23 1013.5 998.7
09 13.09 Ю 5
{13}
50 км 8/4 600 м
[Sc Ac trans Cc]
+17.7 +10.4 62 +17 +17 1012.1 997.2 +21.8
12 13.09 Ю 5-13
{13}
н/о н/о +16.7 +12.9 78 +16 +16 1011.3 996.3
15 13.09 Ю 7-13
{16}
20 км 10/10 600 м
[Sc]
+16.6 +13.4 81 +15 +15 1009.0 994.0
18 13.09 Ю 7 н/о н/о +16.1 +15.0 93 +15 1009.6 994.7
21 13.09 ЮЗ 3
{14}
10 км слаб. ливневой дождь 10/10 200 м
[Cb cap]
+16.5 +15.5 94 +16 +16 1009.3 994.4 +15.8 4
00 14.09 С 1 н/о н/о +15.1 +14.2 94 +16 +16 1011.6 996.5 +15.0
03 14.09 С 2 50 км 10 баллов +19.3 +13.7 70 +21 +21 комфорт 1012.1 997.3
06 14.09 СВ 2 н/о н/о +20.5 +11.7 57 +23 1012.0 997.3
09 14.09 СВ 1 50 км ясно +17.8 +11.0 64 +19 +19 1012.2 997.2 +21.3 2
12 14.09 СЗ 1 н/о н/о +11.9 +10.5 91 +12 1015.2 1000.0
15 14.09 З 2 20 км ясно +11.2 +9.8 91 +10 +10 1016.6 1001.3
18 14.09 З 2 н/о н/о +10.3 +8.1 86 +9 1016.7 1001.3
21 14.09 Ю 1 50 км 3/0
[Ci sp]
+7.7 +6.2 90 +7 +7 1016.0 1000.4 +7.7
00 15.09 штиль 0 н/о н/о +17.3 +9.5 60 +17 +17 1015.6 1000.6 +7.4
03 15.09 ЮВ 3 50 км 4 балла +21.3 +6.4 38 +22 +28 комфорт 1014.8 1000.0
06 15.09 Ю 3 н/о н/о +22.5 +4.5 31 +23 1012.0 997.3
09 15.09 Ю 1 50 км 3/0
[Cc]
+19.4 +8.2 48 +21 +21 комфорт 1010.9 996.0 +22.6
12 15.09 Ю 3 н/о н/о +15.5 +6.5 55 +15 1012.3 997.3
15 15.09 Ю 3 50 км 7 баллов +14.0 +7.7 66 +13 +13 1012.4 997.3
18 15.09 Ю 2 н/о н/о +12.9 +6.9 67 +12 1012.5 997.3
21 15.09 ЮЗ 2 50 км 3/0
[Ac trans Cc]
+12.4 +7.2 71 +12 +12 1011.5 996.3 +12.0
00 16.09 З 3 н/о н/о +18.1 +10.1 60 +18 +18 1012.6 997.7
03 16.09 С 2 50 км 6 баллов +21.3 +10.1 49 +23 +27 комфорт 1013.4 998.7
06 16.09 СВ 4 н/о н/о +19.4 +9.0 51 +20 1013.5 998.7
09 16.09 СВ 1 50 км ясно +16.0 +8.0 59 +17 +17 1015.0 1000.0 +21.5
12 16.09 С 1 н/о н/о +10.8 +5.3 69 +11 1016.6 1001.3
15 16.09 С 1 50 км ясно +8.6 +1.3 60 +8 +8 1018.2 1002.7
18 16.09 З 2 н/о н/о +6.4 +1.7 72 +4 1018.3 1002.7
21 16.09 З 2 50 км ясно +5.8 +1.3 73 +4 +4 1018.4 1002.7 +5.4

 

Местоположение метеостанции Хороль (Приморский край, Россия): широта 44.43 долгота 132.00 высота над уровнем моря 127 м.

В архиве по умолчанию представлена погода в Хороле за последнюю неделю. Архивные данные за месяц целиком и за предыдущие месяцы, начиная с января 2011 года, Вы можете получить, выбрав интересующий диапазон дат из раскрывающегося списка и нажав кнопку "Ввод!".


*Определитесь, кто Вы:
робот инопланетянин человек

Внимание! Время в таблицах - всемирное. Для получения местного времени необходимо прибавить поправку, которая равна 10 ч.

Смотрите также архив погоды в соседних городах и на ближайших метеорологических станциях:

Погода в Астраханке (Приморский край, Россия) (32 км)
Погода в Пограничном (Приморский край, Россия) (56 км)
Погода в Тимирязевском (Приморский край, Россия) (62 км)
Погода в Спасск-Дальнем (Приморский край, Россия) (67 км)
Погода в Суйфэньхэ (Хэйлунцзян, Китай) (68 км)
Погода в Полтавке (Приморский край, Россия) (71 км)
Погода в Турьем Роге (Приморский край, Россия) (87 км)
Погода в Свиягино (Приморский край, Россия) (89 км)
Погода в Анучино (Приморский край, Россия) (95 км)
Погода в Многоудобном (Приморский край, Россия) (113 км)

Пояснения к столбцам:

Ветер - указаны скорость ветра в м/с - средняя за 10 мин, порывы в срок и между сроками (в фигурных скобках) и направление, откуда дует ветер: С - северный, СВ - северо-восточный, В - восточный, ЮВ - юго-восточный, Ю - южный, ЮЗ - юго-западный, З - западный, СЗ - северо-западный.
Видимость - горизонтальная дальность видимости в метрах или километрах. При видимости от 1 до 10 км при отсутствии осадков обычно наблюдается дымка, при ухудшении видимости до 1 км и менее - туман. В сухую погоду видимость может ухудшаться дымом, пылью или мглою.
Явления - указаны атмосферные явления, наблюдавшиеся в срок или в последний час перед сроком; фигурными скобками обозначены явления, наблюдавшиеся между сроками (за 1-3 часа до срока); квадратными скобками обозначены град или гололедные отложения с указанием их диаметра в мм.
Облачность - указаны через наклонную черту общая и нижняя облачность в баллах и высота нижней границы облаков в метрах; квадратными скобками обозначены формы облаков: Ci - перистые, Cs - перисто-слоистые, Cc - перисто-кучевые, Ac - высококучевые, As - высокослоистые, Sc - слоисто-кучевые, Ns - слоисто-дождевые, Cu - кучевые, Cb - кучево-дождевые. Подробнее классификацию облаков см. в Атласе облаков (PDF).
T - Температура воздуха - температура, измеренная на высоте 2 м над землей.
Td - Температура точки росы - температура, при понижении до которой содержащийся в воздухе водяной пар достигнет насыщения.
f - Относительная влажность воздуха - влажноcть воздуха, измеренная на высоте 2 м над землей.
Te - Эффективная температура - температура, которую ощущает одетый по сезону человек в тени. Характеристика душности погоды. При расчете учитывается влияние влажности воздуха и скорости ветра на теплоощущения человека.
Tes - Эффективная температура на солнце - температура, которую ощущает человек, с поправкой на солнечный нагрев. Характеристика знойности погоды. Зависит от высоты солнца над горизонтом, облачности и скорости ветра. Ночью, в пасмурную погоду, а также при ветре 12 м/с и более поправка равна нулю.
P - Атмосферное давление - приведенное к уровню моря атмосферное давление.
Po - Атмосферное давление - измеренное на уровне метеостанции атмосферное давление.
Tmin - Минимальная температура - минимум температуры воздуха на высоте 2 м над землей.
Tmax - Максимальная температура - максимум температуры воздуха на высоте 2 м над землей.
R - Количество осадков - Количество выпавших осадков за период времени, мм. При наведении курсора мыши на число - период времени, за который выпало указанное количество осадков.
R24 - Количество осадков - Количество выпавших осадков за 24 часа, мм.
S - Снежный покров - Высота снежного покрова, см. При наведении курсора мыши на число - состояние снежного покрова и степень покрытия местности в баллах.